This is the latest recevied weather packets stored in our database for station/object HB9KBJ-8. If no packets are shown the sender has not sent any weather packets the latest 10 day(s).
| Time | Temp. | Humidity | Pressure | Rain* | Wind** | Luminosity | Snow |
|---|---|---|---|---|---|---|---|
| 1777207351 | 20° C | 31% | 1020.6 hPa | 0 mm | - | 779 W/m² | - |
| 1777207045 | 20.56° C | 29% | 1020.6 hPa | 0 mm | - | 810 W/m² | - |
| 1777206745 | 20° C | 31% | 1020.6 hPa | 0 mm | - | 828 W/m² | - |
| 1777206449 | 20° C | 30% | 1020.7 hPa | 0 mm | - | 675 W/m² | - |
| 1777206147 | 20.56° C | 30% | 1020.7 hPa | 0 mm | - | 661 W/m² | - |
| 1777205842 | 20.56° C | 30% | 1020.7 hPa | 0 mm | - | 726 W/m² | - |
| 1777205544 | 20° C | 32% | 1020.8 hPa | 0 mm | - | 784 W/m² | - |
| 1777205255 | 20° C | 32% | 1020.8 hPa | 0 mm | - | 752 W/m² | - |
| 1777204940 | 20° C | 29% | 1020.8 hPa | 0 mm | - | 784 W/m² | - |
| 1777204639 | 20° C | 31% | 1020.8 hPa | 0 mm | - | 761 W/m² | - |
| 1777204338 | 20° C | 31% | 1020.8 hPa | 0 mm | - | 849 W/m² | - |
| 1777204042 | 20° C | 31% | 1020.8 hPa | 0 mm | - | 816 W/m² | - |
| 1777203745 | 20° C | 32% | 1020.8 hPa | 0 mm | - | 700 W/m² | - |
| 1777203437 | 19.44° C | 32% | 1020.8 hPa | 0 mm | - | 768 W/m² | - |
| 1777203153 | 19.44° C | 32% | 1020.9 hPa | 0 mm | - | 754 W/m² | - |
| 1777202844 | 19.44° C | 33% | 1020.9 hPa | 0 mm | - | 830 W/m² | - |
| 1777202537 | 19.44° C | 30% | 1021 hPa | 0 mm | - | 819 W/m² | - |
| 1777202252 | 19.44° C | 31% | 1021.1 hPa | 0 mm | - | 793 W/m² | - |
| 1777201949 | 18.89° C | 31% | 1021.1 hPa | 0 mm | - | 803 W/m² | - |
| 1777201652 | 18.89° C | 31% | 1021.2 hPa | 0 mm | - | 835 W/m² | - |
| 1777201344 | 18.89° C | 31% | 1021.2 hPa | 0 mm | - | 742 W/m² | - |
| 1777201040 | 18.33° C | 33% | 1021.3 hPa | 0 mm | - | 698 W/m² | - |
| 1777200752 | 18.33° C | 33% | 1021.3 hPa | 0 mm | - | 650 W/m² | - |
| 1777200445 | 18.33° C | 31% | 1021.3 hPa | 0 mm | - | 640 W/m² | - |
| 1777200138 | 18.89° C | 33% | 1021.3 hPa | 0 mm | - | 515 W/m² | - |
* Rain latest hour (hover to see other rain measurements)
** Current wind speed in m/s (hover to see current wind gust speed)